Terug naar catalogus

STARLINK-30935

ActiefCommunicatieVLEO
NORAD 58455·PAYLOAD·🇺🇸 United States

Gelanceerd Nov 28, 2023 vanaf Cape Canaveral Space Force Station

Loading…

Volgende Passages (komende 24 uur)

TLE

VersSource: CelesTrak SupGP

Epoch: Sep 15, 2026, 03:06 UTC

1 58455C 23183U   26258.12965278 -.00090682  00000+0 -32845-2 0  2585
2 58455  43.0017  52.0268 0001355 264.6468  92.1131 15.27624020    14

Volg STARLINK-30935 in realtime met AllMySat

Download on the App Store